FW1030 Weather Reports


time (UTC)temp
F
wind
direction
speed
knots
gust
knots
rain 1hr
in
rain 24hr
in
rain mn
in
humidity
%
barometer
mb
20210920064507 82 267 0.0 0.0 0.00 0.00 0.00 84 1014.3
20210920063034 82 273 0.0 0.0 0.00 0.00 0.00 84 1014.4
20210920061502 82 267 0.0 0.0 0.00 0.00 0.00 84 1014.6
20210920054650 82 271 0.0 0.0 0.00 0.00 0.00 83 1015.1
20210920053225 82 242 0.0 0.0 0.00 0.00 0.00 83 1015.2
20210920051736 82 254 0.0 0.0 0.00 0.00 0.00 83 1015.3
20210920050130 82 258 0.0 0.0 0.00 0.00 0.00 84 1015.4
20210920044627 83 252 0.0 0.0 0.00 0.00 0.00 84 1015.7
20210920043115 82 272 0.0 0.0 0.00 0.00 0.00 83 1015.7
20210920041638 82 272 0.0 0.0 0.00 0.00 0.00 83 1015.7
20210920040125 83 236 0.0 0.0 0.00 0.00 0.00 83 1015.7
20210920034635 82 298 0.0 0.0 0.00 0.00 0.00 83 1015.7
20210920033101 82 300 0.0 0.0 0.00 0.00 0.00 84 1015.7
20210920031556 82 300 0.0 0.0 0.00 0.00 0.00 84 1015.8
20210920030129 82 300 0.0 0.0 0.00 0.00 0.00 84 1015.7
20210920024622 82 300 0.0 0.0 0.00 0.00 0.00 84 1015.6
20210920023117 82 300 0.0 0.0 0.00 0.00 0.00 84 1015.7
20210920021656 82 300 0.0 0.0 0.00 0.00 0.00 83 1015.7
20210920020059 82 300 0.0 0.0 0.00 0.00 0.00 83 1015.6
20210920014547 82 300 0.0 0.0 0.00 0.00 0.00 82 1015.6
20210920013127 82 300 0.0 0.0 0.00 0.00 0.00 82 1015.3
20210920011610 83 300 0.0 0.0 0.00 0.00 0.00 81 1015.2
20210920010100 82 300 0.0 0.0 0.00 0.00 0.00 81 1015.0
20210920004712 82 300 0.0 0.0 0.00 0.00 0.00 80 1014.8
20210920003109 83 300 0.0 0.0 0.00 0.00 0.00 79 1014.6
20210920001602 83 300 0.0 0.0 0.00 0.00 0.00 79 1014.6
20210920000049 83 300 0.0 0.0 0.00 0.00 0.00 77 1014.4
20210919234552 83 298 0.0 0.0 0.00 0.00 0.00 77 1014.3
20210919233031 84 297 0.0 0.0 0.00 0.00 0.00 77 1014.2
20210919231554 84 5 0.0 0.0 0.00 0.00 0.00 76 1014.0
20210919230038 84 333 0.0 0.0 0.00 0.00 0.00 76 1014.0
20210919224532 84 30 0.0 0.0 0.00 0.00 0.00 76 1014.0
20210919223031 84 5 0.0 0.0 0.00 0.00 0.00 76 1013.9
20210919221638 84 360 0.0 0.0 0.00 0.00 0.00 76 1013.7
20210919220046 84 26 0.0 0.0 0.00 0.00 0.00 77 1013.9
20210919214542 84 5 0.0 0.0 0.00 0.00 0.00 77 1013.7
20210919213041 84 30 0.0 0.0 0.00 0.00 0.00 76 1013.9
20210919211520 84 23 0.0 0.0 0.00 0.00 0.00 78 1013.9
20210919210047 84 5 0.0 0.0 0.00 0.00 0.00 77 1013.8
20210919204530 84 34 0.0 0.0 0.00 0.00 0.00 77 1013.7
20210919203016 84 34 0.0 0.0 0.00 0.00 0.00 76 1014.0
20210919201702 85 49 0.0 0.0 0.00 0.00 0.00 76 1014.1
20210919200124 85 37 0.0 0.0 0.00 0.00 0.00 76 1014.0
20210919194558 85 5 0.0 0.0 0.00 0.00 0.00 75 1014.2
20210919193038 85 18 0.0 0.0 0.00 0.00 0.00 74 1014.2
20210919191536 86 34 0.0 0.0 0.00 0.00 0.00 75 1014.2
20210919190044 86 16 0.0 0.0 0.00 0.00 0.00 74 1014.6
20210919184545 86 19 0.0 0.0 0.00 0.00 0.00 75 1014.7
20210919183036 86 360 0.0 0.0 0.00 0.00 0.00 73 1014.9
20210919181614 87 336 0.0 0.0 0.00 0.00 0.00 74 1015.1
20210919180036 86 13 0.0 0.0 0.00 0.00 0.00 75 1015.1
20210919174518 86 11 0.0 0.0 0.00 0.00 0.00 74 1015.5
20210919173020 86 14 0.0 0.0 0.00 0.00 0.00 73 1015.8
20210919171537 86 351 0.0 0.0 0.00 0.00 0.00 74 1016.0
20210919170017 86 338 0.0 0.0 0.00 0.00 0.00 73 1016.2
20210919164523 86 5 0.0 0.0 0.00 0.00 0.00 73 1016.3
20210919163026 86 24 0.0 0.0 0.00 0.00 0.00 74 1016.4
20210919161542 86 11 0.0 0.0 0.00 0.00 0.00 76 1016.6
20210919160006 86 350 0.0 0.0 0.00 0.00 0.00 75 1016.6
20210919154516 87 355 0.0 0.0 0.00 0.00 0.00 73 1016.7
20210919153154 86 5 0.0 0.0 0.00 0.00 0.00 75 1016.8
20210919151537 86 360 0.0 0.0 0.00 0.00 0.00 74 1016.8
20210919150139 86 11 0.0 0.0 0.00 0.00 0.00 76 1016.7
20210919144540 86 321 0.0 0.0 0.00 0.00 0.00 77 1016.6
20210919143054 85 323 0.0 0.0 0.00 0.00 0.00 77 1016.5
20210919141545 85 254 0.0 0.0 0.00 0.00 0.00 78 1016.5
20210919140019 84 260 0.0 0.0 0.00 0.00 0.00 79 1016.4
20210919134532 84 231 0.0 0.0 0.00 0.00 0.00 81 1016.4
20210919133038 83 235 0.0 0.0 0.00 0.00 0.00 82 1016.3
20210919131513 83 263 0.0 0.0 0.00 0.00 0.00 81 1016.2
20210919130027 83 239 0.0 0.0 0.00 0.00 0.00 81 1016.2
20210919124507 82 282 0.0 0.0 0.00 0.00 0.00 82 1016.1
20210919123012 82 252 0.0 0.0 0.00 0.00 0.00 82 1016.0
20210919121505 82 277 0.0 0.0 0.00 0.00 0.00 83 1016.0
20210919120003 81 264 0.0 0.0 0.00 0.00 0.00 83 1015.9
20210919114506 81 244 0.0 0.0 0.00 0.00 0.00 85 1015.9
20210919113002 81 219 0.0 0.0 0.00 0.00 0.00 85 1016.0
20210919110247 81 261 0.0 0.0 0.00 0.00 0.00 84 1015.8
20210919104622 82 259 0.0 0.0 0.00 0.00 0.00 83 1015.7
20210919103131 82 246 0.0 0.0 0.00 0.00 0.00 82 1015.6
20210919101636 81 262 0.0 0.0 0.00 0.00 0.00 82 1015.5
20210919100055 81 232 0.0 0.0 0.00 0.00 0.00 81 1015.5
20210919094718 82 209 0.0 0.0 0.00 0.00 0.00 81 1015.3
20210919093117 82 230 0.0 0.0 0.00 0.00 0.00 80 1015.2
20210919091717 81 222 0.0 0.0 0.00 0.00 0.00 81 1015.2
20210919090121 81 236 0.0 0.0 0.00 0.00 0.00 83 1015.1
20210919084612 81 213 0.0 0.0 0.00 0.00 0.00 84 1015.0
20210919083137 81 213 0.0 0.0 0.00 0.00 0.00 83 1015.0
20210919081614 81 219 0.0 0.0 0.00 0.00 0.00 83 1015.0
20210919080047 81 220 0.0 0.0 0.00 0.00 0.00 83 1015.1
20210919074534 81 167 0.0 0.0 0.00 0.00 0.00 83 1015.1
20210919073100 80 49 0.0 0.0 0.00 0.00 0.00 82 1015.2
20210919071615 81 49 0.0 0.0 0.00 0.00 0.00 82 1015.3
20210919070103 81 49 0.0 0.0 0.00 0.00 0.00 83 1015.4